カタログに戻る

SPACEMOBILE-SSR05 DEB

運用中VLEO
NORAD 62373·DEBRIS·🇺🇸 United States

打ち上げ Sep 12, 2024 から Cape Canaveral Space Force Station

Loading…

次のパス (今後24時間)

TLE

最新Source: Space-Track

元期: Sep 14, 2026, 07:58 UTC

1 62373U 24163K   26257.33247608  .00009036  00000-0  26729-3 0  9999
2 62373  52.9731 225.0563 0008982  72.8585 287.3399 15.35653315111815

AllMySatでSPACEMOBILE-SSR05 DEBをリアルタイム追跡

Download on the App Store